Content
SEND FEEDBACK

Daily
Averages
Monthly
Summary
United States of America

ST. LOUIS, MISSOURI


Home > North America > United States > Missouri
Elevation: 535 feet     Latitude: 38 45N     Longitude: 090 22W

WEATHER
 
SELECT A DAY
Number of Records: 199,686;   Date Range: 1/1/95 - 10/22/14
 
SHARE

PRINT THIS DATA

[ ← Previous Day ]
WEATHER ALMANAC - MAY 16, 2013
[ Next Day → ]
[ °C ]   °F
Weather ElementAverageHighLow
Temperature72.2 °F80.1 °F (2:54 pm)62.1 °F (11:54 pm)
Dewpoint61.2 °F66.9 °F (1:54 pm)55 °F (6:54 pm)
Humidity69.6 %87 % (3:54 am)45 % (3:54 pm)
Barometer29.88 in29.93 in (7:54 am)29.84 in (1:54 am)
Wind Speed4.8 mph11.5 mph (3:54 pm)
Wind Gust19.6 mph (12:54 pm)
Weather ElementAverage
Visibility9.9 mi
Wind DirectionESE (128.3 °)

Weather ElementTotal
Precipitation0.09 in
Cooling Degree Days6.1 (Base 65)
Growing Degree Days21.1 (Base 50)
Averaged from 23 records on May 16, 2013
WEATHER CONDITIONS BREAKOUT
WIND DIRECTION BREAKOUT
WEATHER BY HOUR - MAY 16, 2013
[ °C ]   °F
Local TimeTemperatureDewpointHumidityBarometerVisibilityWind DirectionWind SpeedGust SpeedPrecipitationEventsConditions
1:54 AM72.0 °F64.9 °F78 %29.84 in10.0 miSSW (210°)5.8 mphClear
2:54 AM70.0 °F64.0 °F81 %29.84 in10.0 miWest (260°)3.5 mphClear
3:54 AM68.0 °F64.0 °F87 %29.86 in10.0 miCalmMostly Cloudy
4:54 AM68.0 °F64.0 °F87 %29.88 in10.0 miCalmClear
5:54 AM69.1 °F63.0 °F81 %29.89 in10.0 miSSW (210°)5.8 mph0.00 inOvercast
6:54 AM69.1 °F63.0 °F81 %29.91 in10.0 miCalmOvercast
7:54 AM71.1 °F64.0 °F78 %29.93 in10.0 miCalmOvercast
8:54 AM75.0 °F63.0 °F66 %29.90 in10.0 miWSW (240°)5.8 mphMostly Cloudy
9:54 AM77.0 °F63.0 °F62 %29.91 in10.0 miWSW (240°)6.9 mphScattered Clouds
10:54 AM78.1 °F63.0 °F60 %29.90 in10.0 miENE (70°)3.5 mphMostly Cloudy
11:54 AM79.0 °F64.9 °F62 %29.89 in10.0 miEast (100°)5.8 mphMostly Cloudy
12:54 PM70.0 °F62.1 °F76 %29.89 in8.0 miSSE (150°)9.2 mph19.6 mph0.07 inRainHeavy Rain
1:54 PM78.1 °F66.9 °F68 %29.87 in10.0 miSouth (180°)8.1 mph0.02 inMostly Cloudy
2:54 PM80.1 °F62.1 °F54 %29.86 in10.0 miSSE (150°)6.9 mph16.1 mphMostly Cloudy
3:54 PM80.1 °F57.0 °F45 %29.86 in10.0 miSouth (170°)11.5 mph18.4 mphMostly Cloudy
4:54 PM78.8 °F59.0 °F51 %29.87 in10.0 miSouth (190°)10.4 mph17.3 mphScattered Clouds
5:54 PM75.9 °F57.0 °F52 %29.86 in10.0 miSSW (210°)11.5 mphMostly Cloudy
6:54 PM73.0 °F55.0 °F53 %29.87 in10.0 miSouth (190°)8.1 mphMostly Cloudy
7:54 PM72.0 °F55.0 °F55 %29.88 in10.0 miSSW (210°)3.5 mphOvercast
8:54 PM66.9 °F57.9 °F73 %29.88 in10.0 miCalmClear
9:54 PM64.0 °F57.9 °F80 %29.89 in10.0 miSouth (170°)4.6 mphClear
10:54 PM64.0 °F59.0 °F84 %29.91 in10.0 miCalmClear
11:54 PM62.1 °F57.9 °F86 %29.92 in10.0 miCalmMostly Cloudy
Hourly data recorded from KSUS, located miles away from St. Louis, Missouri







STORIES FROM OUR PARTNERS